Flag for China Weather past 2 weeks in Dalian, Liaoning, China

Now
81 °F

Partly cloudy.


Feels Like: 86 °F
Forecast: 77 / 83 °F
Wind: 6 mph from South

Location: Dalian Airport

Current Time: Aug 1, 2015 at 8:07:33 PM

Latest Report: Aug 1, 2015 at 7:30 PM


Visibility: N/A

Pressure: 29.71 "Hg

Humidity: 84%

Dew point: 75 °F

Location of DalianLocation

Historic Weather in Dalian — Graph

°F

Dalian temperature yesterday

Maximum temperature yesterday: 82 °F (at 11:30 AM)
Minimum temperature yesterday: 75 °F (at 3:30 AM)
Average temperature yesterday: 78 °F

Past Weeks' High & Low Weather Summary

 TemperatureHumidityPressure
High91 °F (Jul 26, 11:30 AM)100% (Jul 26, 4:30 AM)29.86 "Hg (Jul 26, 4:30 AM)
Low70 °F (Jul 19, 2:30 AM)48% (Jul 18, 1:30 PM)29.56 "Hg (Jul 25, 4:00 AM)
Average79 °F82%29.70 "Hg
* Reported Jul 17 7:00 PM — Aug 1 7:00 PM, Dalian, Weather by CustomWeather, © 2015

Note: Actual official high and low records may vary slightly from our data, if they occured in-between our weather recording intervals... More about our weather records

Advertising

Dalian weather history for previous 24 hours

 ConditionsComfort  
Time TempWeatherWind HumidityBarometerVisibility
7:00 PM
Sat, Aug 1
81 °FBroken clouds.10 mph84%29.68 "HgN/A
6:30 PM81 °FPartly sunny.8 mph84%29.68 "HgN/A
6:00 PM82 °FPartly sunny.10 mph79%29.68 "HgN/A
5:30 PM82 °FPartly sunny.8 mph79%29.68 "HgN/A
5:00 PM82 °FPartly sunny.10 mph79%29.71 "HgN/A
4:30 PM84 °FPartly sunny.8 mph74%29.71 "HgN/A
4:00 PM86 °FPartly sunny.6 mph75%29.71 "HgN/A
3:30 PM84 °FPartly sunny.6 mph74%29.71 "HgN/A
3:00 PM84 °FPartly sunny.8 mph74%29.71 "HgN/A
2:30 PM82 °FPartly sunny.10 mph79%29.74 "HgN/A
2:00 PM84 °FPartly sunny.10 mph74%29.74 "HgN/A
1:30 PM84 °FPartly sunny.13 mph70%29.74 "HgN/A
1:00 PM84 °FPartly sunny.10 mph70%29.74 "HgN/A
12:30 PM82 °FPartly sunny.13 mph74%29.74 "HgN/A
12:00 PM84 °FPartly sunny.10 mph66%29.74 "HgN/A
11:30 AM84 °FPartly sunny.10 mph66%29.77 "HgN/A
11:00 AM82 °FPartly sunny.10 mph74%29.77 "Hg5 mi
10:30 AM82 °FFog.10 mph70%29.77 "Hg3 mi
10:00 AM81 °FFog.10 mph79%29.77 "Hg2 mi
9:30 AM79 °FFog.8 mph84%29.77 "Hg2 mi
9:00 AM79 °FFog.8 mph89%29.77 "Hg2 mi
8:30 AM79 °FFog.8 mph89%29.77 "Hg2 mi
8:00 AM79 °FFog.8 mph89%29.77 "Hg1 mi
7:30 AM79 °FFog.3 mph89%29.77 "Hg1 mi
7:00 AM77 °FFog.3 mph94%29.77 "Hg1 mi
6:30 AM77 °FFog.3 mph94%29.74 "Hg1 mi
6:00 AM75 °FFog.1 mph100%29.74 "Hg1 mi
5:30 AM75 °FFog.No wind94%29.74 "Hg1 mi
5:00 AM75 °FFog.1 mph94%29.74 "Hg1 mi
4:30 AM75 °FFog.1 mph94%29.74 "Hg2 mi
4:00 AM75 °FFog.1 mph94%29.74 "Hg2 mi
3:30 AM75 °FFog.3 mph94%29.74 "Hg2 mi
3:00 AM75 °FFog.1 mph100%29.71 "Hg2 mi
2:30 AM75 °FFog.1 mph100%29.71 "Hg2 mi
2:00 AM75 °FFog.1 mph100%29.74 "Hg2 mi
1:30 AM75 °FFog.1 mph94%29.74 "Hg2 mi
1:00 AM75 °FFog.1 mph100%29.74 "Hg2 mi
12:30 AM75 °FFog.1 mph94%29.74 "Hg2 mi
12:00 AM75 °FFog.1 mph100%29.74 "Hg2 mi
11:30 PM
Fri, Jul 31
75 °FFog.1 mph94%29.74 "Hg2 mi
11:00 PM75 °FFog.1 mph94%29.77 "Hg2 mi
10:30 PM75 °FFog.1 mph94%29.74 "Hg2 mi
10:00 PM75 °FFog.3 mph94%29.77 "Hg2 mi
9:30 PM75 °FFog.3 mph94%29.77 "Hg2 mi
9:00 PM75 °FFog.6 mph100%29.74 "Hg2 mi
8:30 PM75 °FFog.3 mph100%29.74 "Hg3 mi
8:00 PM77 °FPassing clouds.3 mph94%29.74 "Hg4 mi
Weather by CustomWeather, © 2015

See weather overviewHow to use our weather pages